When you browse on this site, cookies collect data to enhance your experience and personalize the content and advertising you see.
Visit our Privacy Policy to learn more. By continuing to use the site, you agree to this use of cookies and data.
  • In Hungary
  • List of Countries
  • For 7 days
  • Water Temperature
  • Satellite Maps
  • Weather Map
  • News
  • Weather Widgets
  • user-avatar
    Login

    Hourly Weather Przylesie

    Today, 24 January, Thursday

    Time Temperature Precipitation Wind Pressure Humidity
    00:00 -8°C° 0 mm 4 mps 750 mmHg 72%
    01:00 -7°C° 0 mm 3 mps 750 mmHg 73%
    02:00 -7°C° 0 mm 3 mps 750 mmHg 74%
    03:00 -9°C° 0 mm 4 mps 750 mmHg 75%
    04:00 -9°C° 0 mm 4 mps 750 mmHg 76%
    05:00 -9°C° 0 mm 4 mps 751 mmHg 76%
    06:00 -9°C° 0 mm 4 mps 751 mmHg 76%
    07:00 -9°C° 0 mm 4 mps 751 mmHg 76%
    08:00 -9°C° 0 mm 4 mps 751 mmHg 74%
    09:00 -8°C° 0 mm 4 mps 752 mmHg 71%
    10:00 -8°C° 0 mm 4 mps 752 mmHg 68%
    11:00 -8°C° 0 mm 4 mps 752 mmHg 66%
    12:00 -7°C° 0 mm 4 mps 752 mmHg 64%
    13:00 -7°C° 0 mm 4 mps 752 mmHg 62%
    14:00 -7°C° 0 mm 4 mps 752 mmHg 62%
    15:00 -7°C° 0 mm 4 mps 752 mmHg 63%
    16:00 -7°C° 0 mm 4 mps 752 mmHg 64%
    17:00 -7°C° 0 mm 4 mps 752 mmHg 65%
    18:00 -6°C° 0 mm 3 mps 752 mmHg 66%
    19:00 -7°C° 0 mm 3 mps 752 mmHg 67%
    20:00 -7°C° 0 mm 3 mps 753 mmHg 68%
    21:00 -7°C° 0 mm 3 mps 753 mmHg 69%
    22:00 -7°C° 0 mm 3 mps 753 mmHg 69%
    23:00 -7°C° 0 mm 3 mps 753 mmHg 71%

    Tomorrow, 25 January, Friday

    Time Temperature Precipitation Wind Pressure Humidity
    00:00 -7°C° 0 mm 2 mps 753 mmHg 72%
    01:00 -7°C° 0 mm 2 mps 753 mmHg 73%
    02:00 -7°C° 0 mm 2 mps 753 mmHg 75%
    03:00 -7°C° 0 mm 2 mps 753 mmHg 76%
    04:00 -7°C° 0 mm 2 mps 753 mmHg 78%
    05:00 -7°C° 0 mm 2 mps 753 mmHg 78%
    06:00 -6°C° 0 mm 1 mps 753 mmHg 79%
    07:00 -6°C° 0 mm 1 mps 754 mmHg 79%
    08:00 -6°C° 0 mm 1 mps 754 mmHg 77%
    09:00 -4°C° 0 mm 1 mps 754 mmHg 74%
    10:00 -4°C° 0 mm 1 mps 754 mmHg 72%
    11:00 -4°C° 0 mm 1 mps 754 mmHg 69%
    12:00 -5°C° 0 mm 2 mps 754 mmHg 66%
    13:00 -5°C° 0 mm 2 mps 754 mmHg 64%
    14:00 -5°C° 0 mm 2 mps 754 mmHg 63%
    15:00 -5°C° 0 mm 2 mps 754 mmHg 63%
    16:00 -5°C° 0 mm 3 mps 754 mmHg 62%
    17:00 -5°C° 0 mm 2 mps 754 mmHg 64%
    18:00 -5°C° 0 mm 2 mps 754 mmHg 65%
    19:00 -5°C° 0 mm 2 mps 755 mmHg 67%
    20:00 -6°C° 0 mm 2 mps 754 mmHg 67%
    21:00 -6°C° 0 mm 2 mps 754 mmHg 68%
    22:00 -6°C° 0 mm 2 mps 754 mmHg 69%
    23:00 -7°C° 0 mm 3 mps 754 mmHg 69%

    Day after tomorrow, 26 January, Saturday

    Time Temperature Precipitation Wind Pressure Humidity
    00:00 -7°C° 0 mm 3 mps 753 mmHg 68%
    01:00 -6°C° 0 mm 3 mps 753 mmHg 67%
    02:00 -6°C° 0 mm 3 mps 752 mmHg 68%
    03:00 -7°C° 0 mm 4 mps 751 mmHg 68%
    04:00 -5°C° 0 mm 4 mps 750 mmHg 68%
    05:00 -5°C° 0.4 mm 4 mps 749 mmHg 74%
    06:00 -5°C° 0.4 mm 5 mps 748 mmHg 80%
    07:00 -5°C° 0.4 mm 5 mps 747 mmHg 86%
    08:00 -4°C° 1 mm 5 mps 746 mmHg 88%
    09:00 -2°C° 1 mm 5 mps 746 mmHg 89%
    10:00 -1°C° 1 mm 5 mps 745 mmHg 91%
    11:00 -1°C° 0.6 mm 4 mps 744 mmHg 93%
    12:00 -1°C° 0.6 mm 4 mps 744 mmHg 95%
    13:00 +1°C° 0.6 mm 3 mps 744 mmHg 96%
    14:00 +1°C° 0 mm 3 mps 744 mmHg 97%
    15:00 +1°C° 0 mm 2 mps 744 mmHg 97%
    16:00 +1°C° 0 mm 2 mps 744 mmHg 97%
    17:00 +1°C° 0 mm 2 mps 745 mmHg 97%
    18:00 +1°C° 0 mm 2 mps 745 mmHg 97%
    19:00 +1°C° 0 mm 2 mps 745 mmHg 97%
    20:00 +1°C° 0.1 mm 2 mps 745 mmHg 97%
    21:00 0°C° 0.1 mm 3 mps 745 mmHg 97%
    22:00 0°C° 0.1 mm 3 mps 746 mmHg 97%
    23:00 +1°C° 0.2 mm 2 mps 746 mmHg 97%

    27 January, Sunday

    Time Temperature Precipitation Wind Pressure Humidity
    00:00 +1°C° 0.2 mm 2 mps 745 mmHg 97%
    01:00 +1°C° 0.2 mm 2 mps 745 mmHg 98%
    02:00 +1°C° 0.2 mm 2 mps 745 mmHg 98%
    03:00 +1°C° 0.2 mm 2 mps 745 mmHg 98%
    04:00 +1°C° 0.2 mm 2 mps 744 mmHg 98%
    05:00 +1°C° 0.3 mm 2 mps 744 mmHg 98%
    06:00 +2°C° 0.3 mm 2 mps 743 mmHg 98%
    07:00 +2°C° 0.3 mm 2 mps 743 mmHg 98%
    08:00 +1°C° 0.3 mm 3 mps 743 mmHg 97%
    09:00 +1°C° 0.3 mm 3 mps 742 mmHg 96%
    10:00 +1°C° 0.3 mm 3 mps 742 mmHg 95%
    11:00 +2°C° 0 mm 3 mps 741 mmHg 94%
    12:00 +2°C° 0 mm 3 mps 741 mmHg 94%
    13:00 +2°C° 0 mm 3 mps 740 mmHg 93%
    14:00 +2°C° 0.1 mm 3 mps 740 mmHg 93%
    15:00 +2°C° 0.1 mm 3 mps 739 mmHg 92%
    16:00 +2°C° 0.1 mm 3 mps 739 mmHg 92%
    17:00 +1°C° 0 mm 3 mps 739 mmHg 92%
    18:00 +1°C° 0 mm 3 mps 739 mmHg 92%
    19:00 +1°C° 0 mm 3 mps 739 mmHg 92%
    20:00 +1°C° 0.2 mm 3 mps 738 mmHg 93%
    21:00 +1°C° 0.2 mm 3 mps 738 mmHg 93%
    22:00 +1°C° 0.2 mm 3 mps 738 mmHg 93%
    23:00 +1°C° 0 mm 3 mps 738 mmHg 93%

    28 January, Monday

    Time Temperature Precipitation Wind Pressure Humidity
    00:00 0°C° 0 mm 3 mps 738 mmHg 92%
    01:00 0°C° 0 mm 3 mps 737 mmHg 91%
    02:00 0°C° 0 mm 3 mps 737 mmHg 91%
    03:00 0°C° 0 mm 3 mps 736 mmHg 91%
    04:00 0°C° 0 mm 3 mps 736 mmHg 91%
    05:00 0°C° 0 mm 3 mps 736 mmHg 91%
    06:00 0°C° 0 mm 3 mps 736 mmHg 91%
    07:00 -1°C° 0 mm 3 mps 736 mmHg 91%
    08:00 0°C° 0 mm 3 mps 736 mmHg 91%
    09:00 +1°C° 0 mm 3 mps 736 mmHg 90%
    10:00 +1°C° 0 mm 3 mps 736 mmHg 89%
    11:00 +2°C° 0 mm 3 mps 736 mmHg 88%
    12:00 +2°C° 0 mm 3 mps 736 mmHg 87%
    13:00 +3°C° 0 mm 3 mps 736 mmHg 85%
    14:00 +2°C° 0 mm 3 mps 736 mmHg 87%
    15:00 +2°C° 0 mm 3 mps 736 mmHg 88%
    16:00 +2°C° 0 mm 2 mps 736 mmHg 89%
    17:00 +1°C° 0 mm 3 mps 736 mmHg 90%
    18:00 +1°C° 0 mm 3 mps 736 mmHg 91%
    19:00 +1°C° 0 mm 3 mps 736 mmHg 92%
    20:00 +1°C° 0.1 mm 3 mps 736 mmHg 93%
    21:00 +1°C° 0.1 mm 3 mps 737 mmHg 94%
    22:00 +1°C° 0.1 mm 3 mps 737 mmHg 95%
    23:00 0°C° 0.2 mm 4 mps 738 mmHg 94%

    29 January, Tuesday

    Time Temperature Precipitation Wind Pressure Humidity
    00:00 0°C° 0.2 mm 5 mps 738 mmHg 93%
    01:00 -1°C° 0.2 mm 6 mps 739 mmHg 92%
    02:00 -1°C° 0.1 mm 6 mps 740 mmHg 91%
    03:00 -1°C° 0.1 mm 6 mps 741 mmHg 91%
    04:00 -2°C° 0.1 mm 6 mps 741 mmHg 90%
    05:00 -2°C° 0.3 mm 6 mps 742 mmHg 88%
    06:00 -3°C° 0.3 mm 6 mps 743 mmHg 86%
    07:00 -3°C° 0.3 mm 7 mps 744 mmHg 84%
    08:00 -3°C° 0 mm 6 mps 745 mmHg 84%
    09:00 -3°C° 0 mm 6 mps 746 mmHg 83%
    10:00 -2°C° 0 mm 5 mps 746 mmHg 83%
    11:00 -3°C° 0 mm 6 mps 746 mmHg 82%
    12:00 -2°C° 0 mm 6 mps 746 mmHg 81%
    13:00 -1°C° 0 mm 6 mps 746 mmHg 81%
    14:00 -1°C° 0 mm 5 mps 746 mmHg 81%
    15:00 -1°C° 0 mm 4 mps 746 mmHg 81%
    16:00 -1°C° 0 mm 4 mps 746 mmHg 82%
    17:00 -2°C° 0 mm 4 mps 747 mmHg 82%
    18:00 -2°C° 0 mm 4 mps 747 mmHg 83%
    19:00 -3°C° 0 mm 4 mps 747 mmHg 83%
    20:00 -2°C° 0 mm 4 mps 747 mmHg 83%
    21:00 -2°C° 0 mm 4 mps 747 mmHg 82%
    22:00 -2°C° 0 mm 5 mps 746 mmHg 81%
    23:00 -2°C° 0 mm 4 mps 746 mmHg 82%
    Show more